TimeCST,TemperatureF,Dew PointF,Humidity,Sea Level PressureIn,VisibilityMPH,Wind Direction,Wind SpeedMPH,Gust SpeedMPH,PrecipitationIn,Events,Conditions,WindDirDegrees,DateUTC
12:53 AM,51.1,36.0,56,30.09,10.0,NNE,5.8,-,N/A,,Partly Cloudy,30,2012-11-06 06:53:00
1:53 AM,50.0,37.0,61,30.10,10.0,North,5.8,-,N/A,,Clear,360,2012-11-06 07:53:00
2:53 AM,48.9,37.0,64,30.10,10.0,North,5.8,-,N/A,,Clear,360,2012-11-06 08:53:00
3:53 AM,46.0,37.9,73,30.09,10.0,North,6.9,-,N/A,,Clear,10,2012-11-06 09:53:00
4:53 AM,46.0,37.9,73,30.09,10.0,North,5.8,-,N/A,,Clear,350,2012-11-06 10:53:00
5:53 AM,46.9,37.9,71,30.11,10.0,North,5.8,-,N/A,,Clear,350,2012-11-06 11:53:00
6:53 AM,46.9,39.0,74,30.13,10.0,NNW,5.8,-,N/A,,Partly Cloudy,340,2012-11-06 12:53:00
7:53 AM,50.0,41.0,71,30.14,10.0,North,4.6,-,N/A,,Partly Cloudy,360,2012-11-06 13:53:00
8:53 AM,54.0,39.9,59,30.15,10.0,North,4.6,-,N/A,,Partly Cloudy,360,2012-11-06 14:53:00
9:53 AM,57.9,39.0,49,30.16,10.0,Calm,Calm,-,N/A,,Partly Cloudy,0,2012-11-06 15:53:00
10:53 AM,62.1,37.9,41,30.14,10.0,Calm,Calm,-,N/A,,Partly Cloudy,0,2012-11-06 16:53:00
11:53 AM,64.0,37.0,37,30.14,10.0,Calm,Calm,-,N/A,,Partly Cloudy,0,2012-11-06 17:53:00
12:53 PM,68.0,37.0,32,30.09,10.0,South,4.6,-,N/A,,Partly Cloudy,190,2012-11-06 18:53:00
1:53 PM,71.1,37.0,29,30.06,10.0,WSW,8.1,-,N/A,,Partly Cloudy,250,2012-11-06 19:53:00
2:53 PM,72.0,37.0,28,30.05,10.0,West,9.2,-,N/A,,Partly Cloudy,270,2012-11-06 20:53:00
3:53 PM,73.0,37.9,28,30.04,10.0,Variable,4.6,-,N/A,,Partly Cloudy,0,2012-11-06 21:53:00
4:53 PM,71.1,39.0,31,30.04,10.0,South,4.6,-,N/A,,Clear,170,2012-11-06 22:53:00
5:53 PM,66.9,39.0,36,30.04,10.0,SE,3.5,-,N/A,,Clear,140,2012-11-06 23:53:00
6:53 PM,64.0,39.9,41,30.06,10.0,Calm,Calm,-,N/A,,Clear,0,2012-11-07 00:53:00
7:53 PM,62.1,41.0,46,30.07,10.0,Calm,Calm,-,N/A,,Clear,0,2012-11-07 01:53:00
8:53 PM,62.1,41.0,46,30.09,10.0,Calm,Calm,-,N/A,,Clear,0,2012-11-07 02:53:00
9:53 PM,62.1,41.0,46,30.10,10.0,Calm,Calm,-,N/A,,Clear,0,2012-11-07 03:53:00
10:53 PM,57.0,46.9,69,30.10,10.0,NNW,3.5,-,N/A,,Clear,330,2012-11-07 04:53:00
11:53 PM,59.0,45.0,60,30.11,10.0,Calm,Calm,-,N/A,,Clear,0,2012-11-07 05:53:00